Istanbul, Turkey

2:45 AM EEST on August 31, 2016 (GMT +0300)
Ataturk

Weather History for LTBA - March, 2014

Change the Weather History Date:

Friday, March 14, 2014

  Actual Average Record
Temperature  
Mean Temperature 42 °F -  
Max Temperature 51 °F 55 °F 69 °F (2013)
Min Temperature 34 °F 42 °F 34 °F (2014)
Degree Days  
Heating Degree Days 22    
Moisture  
Dew Point 37 °F    
Average Humidity 73    
Maximum Humidity 93    
Minimum Humidity 36    
Precipitation  
Precipitation 0.00 in - - ()
Sea Level Pressure  
Sea Level Pressure 30.30 in    
Wind  
Wind Speed 3 mph ()    
Max Wind Speed 8 mph    
Max Gust Speed -    
Visibility 3.7 miles    
Events      
Averages and records for this station are not official NWS values.
T = Trace of Precipitation, MM = Missing Value Source: Averaged Metar Reports

Daily Weather History Graph

Daily Weather History Graph

Search for Another Location

Airport or City:

Trip Planner

Search our weather history database for the weather conditions in past years. The results will help you decide how hot, cold, wet, or windy it might be!

Date:

Astronomy

Mar. 14, 2014 Rise Set
Actual Time 6:18 AM EET 6:10 PM EET
Civil Twilight 5:51 AM EET 6:37 PM EET
Nautical Twilight 5:19 AM EET 7:09 PM EET
Astronomical Twilight 4:47 AM EET 7:41 PM EET
Moon 4:12 PM EET (3/14) 4:48 AM EET (3/14)
Length of Visible Light 12h 46m
Length of Day
11h 51m
Waxing Gibbous, 95% of the Moon is Illuminated
Mar 14
Waxing Gibbous
Mar 16
Full
Mar 24
Last Quarter
Mar 30
New
Apr 7
First Quarter

Hourly Weather History & Observations

Time (EET) Temp. Windchill Dew Point Humidity Pressure Visibility Wind Dir Wind Speed Gust Speed Precip Events Conditions
12:20 AM 41.0 °F - 35.6 °F 81% 30.33 in - Variable 1.2 mph - N/A   Clear
12:50 AM 42.8 °F - 37.4 °F 81% 30.33 in - Calm Calm - N/A   Clear
1:20 AM 39.2 °F - 35.6 °F 87% 30.33 in - WNW 2.3 mph - N/A   Clear
1:50 AM 35.6 °F 32.8 °F 33.8 °F 93% 30.33 in 4.3 mi NNW 3.5 mph - N/A   Unknown
2:00 AM 36 °F - 34 °F 89% 30.35 in 4 mi NNW 3.5 mph - -   Mist
2:20 AM 37.4 °F 33.8 °F 35.6 °F 93% 30.33 in 3.7 mi NNW 4.6 mph - N/A   Unknown
2:50 AM 35.6 °F 30.7 °F 33.8 °F 93% 30.33 in 2.5 mi North 5.8 mph - N/A   Mist
3:20 AM 35.6 °F 30.7 °F 33.8 °F 93% 30.33 in 2.2 mi NNW 5.8 mph - N/A   Mist
3:50 AM 35.6 °F 31.7 °F 33.8 °F 93% 30.33 in 2.2 mi NNW 4.6 mph - N/A   Mist
4:20 AM 35.6 °F 31.7 °F 33.8 °F 93% 30.33 in 2.2 mi NNW 4.6 mph - N/A   Mist
4:50 AM 35.6 °F - 33.8 °F 93% 30.33 in 2.2 mi Calm Calm - N/A   Mist
5:00 AM 35 °F - 33 °F 91% 30.35 in 2 mi Calm Calm - -   Mist
5:20 AM 37.4 °F - 35.6 °F 93% 30.33 in 2.2 mi Calm Calm - N/A   Mist
5:50 AM 35.6 °F - 33.8 °F 93% 30.33 in 2.2 mi Calm Calm - N/A   Mist
6:20 AM 35.6 °F - 32.0 °F 87% 30.33 in 2.2 mi Calm Calm - N/A   Mist
6:50 AM 39.2 °F - 35.6 °F 87% 30.33 in 2.2 mi Calm Calm - N/A   Mist
7:20 AM 41.0 °F - 37.4 °F 87% 30.33 in 2.5 mi Calm Calm - N/A   Mist
7:50 AM 44.6 °F - 39.2 °F 81% 30.36 in 2.5 mi Calm Calm - N/A   Mist
8:00 AM 44 °F - 40 °F 79% 30.37 in 2 mi Calm Calm - -   Mist
8:20 AM 46.4 °F 44.3 °F 41.0 °F 81% 30.36 in 3.7 mi South 4.6 mph - N/A   Unknown
8:50 AM 46.4 °F - 41.0 °F 81% 30.36 in 3.7 mi Calm Calm - N/A   Unknown
9:20 AM 46.4 °F 42.9 °F 41.0 °F 81% 30.36 in 3.7 mi South 6.9 mph - N/A   Unknown
9:50 AM 48.2 °F - 39.2 °F 71% 30.36 in - South 5.8 mph - N/A   Clear
10:20 AM 48.2 °F - 37.4 °F 66% 30.36 in - South 5.8 mph - N/A   Clear
10:50 AM 48.2 °F - 37.4 °F 66% 30.36 in - South 6.9 mph - N/A   Clear
11:00 AM 48 °F - 38 °F 58% 30.37 in 6 mi South 6.9 mph - -  
11:20 AM 50.0 °F - 39.2 °F 66% 30.33 in - South 5.8 mph - N/A   Clear
11:50 AM 48.2 °F - 39.2 °F 71% 30.33 in - SSW 4.6 mph - N/A   Clear
12:20 PM 50.0 °F - 39.2 °F 66% 30.33 in - SSW 5.8 mph - N/A   Clear
12:50 PM 50.0 °F - 39.2 °F 66% 30.30 in - South 4.6 mph - N/A   Clear
1:20 PM 50.0 °F - 39.2 °F 66% 30.30 in - SSW 6.9 mph - N/A   Clear
1:50 PM 50.0 °F - 41.0 °F 71% 30.27 in - SW 6.9 mph - N/A   Clear
2:00 PM 50 °F - 40 °F 60% 30.30 in 6 mi SW 6.9 mph - -  
2:20 PM 50.0 °F - 35.6 °F 58% 30.27 in - SW 5.8 mph - N/A   Clear
2:50 PM 51.8 °F - 33.8 °F 50% 30.27 in - SW 6.9 mph - N/A   Clear
3:20 PM 51.8 °F - 37.4 °F 58% 30.27 in - WSW 5.8 mph - N/A   Clear
3:50 PM 51.8 °F - 35.6 °F 54% 30.24 in - SW 5.8 mph - N/A   Clear
4:20 PM 50.0 °F - 37.4 °F 62% 30.24 in - WSW 6.9 mph - N/A   Clear
4:50 PM 50.0 °F - 37.4 °F 62% 30.24 in - WSW 8.1 mph - N/A   Clear
5:00 PM 50 °F - 39 °F 55% 30.26 in 6 mi WSW 8.1 mph - -  
5:20 PM 50.0 °F - 32.0 °F 50% 30.24 in - WSW 6.9 mph - N/A   Clear
5:50 PM 50.0 °F - 32.0 °F 50% 30.24 in - West 4.6 mph - N/A   Clear
6:20 PM 50.0 °F - 32.0 °F 50% 30.24 in - Variable 2.3 mph - N/A   Clear
6:50 PM 50.0 °F - 35.6 °F 58% 30.24 in - SW 3.5 mph - N/A   Clear
7:20 PM 50.0 °F - 33.8 °F 54% 30.24 in - Variable 2.3 mph - N/A   Clear
7:50 PM 50.0 °F - 30.2 °F 47% 30.24 in - WNW 2.3 mph - N/A   Clear
8:00 PM 50 °F - 31 °F 36% 30.25 in 6 mi WNW 2.3 mph - -  
8:20 PM 46.4 °F 44.3 °F 32.0 °F 57% 30.24 in - NNW 4.6 mph - N/A   Clear
8:50 PM 50.0 °F - 37.4 °F 62% 30.24 in 5.0 mi SE 4.6 mph - N/A   Unknown
9:20 PM 50.0 °F - 39.2 °F 66% 30.24 in 5.0 mi Variable 1.2 mph - N/A   Unknown
9:50 PM 48.2 °F - 42.8 °F 82% 30.24 in 5.0 mi SSE 3.5 mph - N/A   Unknown
10:20 PM 46.4 °F - 42.8 °F 87% 30.24 in 5.0 mi Calm Calm - N/A   Unknown
10:50 PM 46.4 °F - 42.8 °F 87% 30.21 in 5.0 mi Variable 1.2 mph - N/A   Unknown
11:00 PM 46 °F - 42 °F 82% 30.24 in 5 mi East 1.2 mph - -   Mist
11:20 PM 44.6 °F - 42.8 °F 93% 30.21 in 4.3 mi Calm Calm - N/A   Unknown
11:50 PM 44.6 °F 43.1 °F 42.8 °F 93% 30.21 in 4.3 mi ESE 3.5 mph - N/A   Unknown